Location: Flotzheim
(48.8375°N, 10.8136°E)
Time: 04:50:26
(UTC+00:00)

NOAA 11 - Pass Details

Date: 23 January 2021
Orbit: 832 x 850 km, 98.4° (Epoch: 26 February)

Event Time Altitude Azimuth Distance (km) Brightness Sun altitude
Rises 16:34:20 0° 159° (SSE) 3,404 7.4 -5.9°
Reaches altitude 10° 16:36:41 10° 158° (SSE) 2,472 6.7 -6.2°
Maximum altitude 16:42:11 78° 73° (ENE) 875 4.2 -7.1°
Drops below altitude 10° 16:47:42 10° 348° (NNW) 2,485 6.6 -7.9°
Sets 16:50:04 0° 347° (NNW) 3,423 7.3 -8.3°
